Weather History for Rochester, NY

Change the Weather History Date:

Tuesday, January 29, 2013

  Actual Average Record
Temperature  
Mean Temperature 44 °F 24 °F  
Max Temperature 55 °F 32 °F 59 °F (1914)
Min Temperature 32 °F 17 °F -9 °F (1873)
Degree Days  
Heating Degree Days 21 41  
Month to date heating degree days 1037 1172  
Since 1 July heating degree days 3213 3625  
Cooling Degree Days 0 0  
Month to date cooling degree days 0 0  
Year to date cooling degree days 0 0  
Moisture  
Dew Point 40 °F    
Average Humidity 92    
Maximum Humidity 100    
Minimum Humidity 83    
Precipitation  
Precipitation 0.48 in 0.07 in 1.41 in (1925)
Month to date precipitation 1.31 2.27  
Year to date precipitation 1.31 2.27  
Snow  
Snow 0.00 in 0.90 in 8.50 in (1925)
Month to date snowfall 11.1 26.5  
Since 1 July snowfall 34.5 55.7  
Snow Depth 0.00 in    
Sea Level Pressure  
Sea Level Pressure 29.95 in    
Wind  
Wind Speed 6 mph (SE)    
Max Wind Speed 18 mph    
Max Gust Speed 24 mph    
Visibility 3 miles    
Events Fog , Rain    
T = Trace of Precipitation, MM = Missing Value Source: NWS Daily Summary

Daily Weather History Graph

Daily Weather History Graph

Search for Another Location

Airport:

Trip Planner

Search our weather history database for the weather conditions in past years. The results will help you decide how hot, cold, wet, or windy it might be!

Date:

Astronomy

Jan. 29, 2013 Rise Set
Actual Time 7:28 AM EST 5:19 PM EST
Civil Twilight 6:58 AM EST 5:49 PM EST
Nautical Twilight 6:24 AM EST 6:24 PM EST
Astronomical Twilight 5:50 AM EST 6:57 PM EST
Moon 8:19 PM EST (1/29) 8:19 AM EST (1/29)
Length of Visible Light 10h 51m
Length of Day
9h 50m
Waning Gibbous, 94% of the Moon is Illuminated
Jan 29
Waning Gibbous
Feb 3
Last Quarter
Feb 10
New
Feb 17
First Quarter
Feb 25
Full

Hourly Weather History & Observations

Time (EST) Temp. Windchill Dew Point Humidity Pressure Visibility Wind Dir Wind Speed Gust Speed Precip Events Conditions
12:17 AM 37.4 °F 32.8 °F 37.4 °F 100% 29.98 in 0.1 mi NNW 5.8 mph - N/A Fog Fog
12:54 AM 37.0 °F 34.5 °F 36.0 °F 96% 30.01 in 0.1 mi West 3.5 mph - 0.00 in Fog Light Drizzle
1:03 AM 37.4 °F 34.9 °F 35.6 °F 93% 29.99 in 1.0 mi WNW 3.5 mph - 0.00 in   Light Drizzle
1:54 AM 37.0 °F 31.0 °F 36.0 °F 96% 30.03 in 0.1 mi North 8.1 mph - 0.00 in Fog Fog
2:18 AM 33.8 °F 25.8 °F 33.8 °F 100% 30.02 in 0.1 mi NNE 10.4 mph - 0.00 in Fog Fog
2:50 AM 33.8 °F 27.7 °F 33.8 °F 100% 30.03 in 0.5 mi NE 6.9 mph - 0.00 in Fog Fog
2:54 AM 34.0 °F 28.0 °F 33.1 °F 96% 30.05 in 0.5 mi NNE 6.9 mph - 0.00 in Fog Fog
3:54 AM 33.1 °F 30.0 °F 32.0 °F 96% 30.05 in 0.2 mi NE 3.5 mph - N/A Fog Fog
4:34 AM 33.8 °F 30.8 °F 32.0 °F 93% 30.03 in 1.2 mi ENE 3.5 mph - N/A   Overcast
4:54 AM 33.1 °F - 33.1 °F 100% 30.06 in 0.5 mi Calm Calm - 0.01 in   Light Drizzle
5:54 AM 33.1 °F 30.0 °F 32.0 °F 96% 30.07 in 0.8 mi East 3.5 mph - 0.00 in   Light Drizzle
6:54 AM 32.0 °F 28.7 °F 32.0 °F 100% 30.06 in 0.2 mi ESE 3.5 mph - 0.00 in Fog Fog
7:09 AM 33.8 °F 30.8 °F 32.0 °F 93% 30.04 in 0.2 mi ESE 3.5 mph - N/A Fog Fog
7:16 AM 33.8 °F 29.6 °F 32.0 °F 93% 30.04 in 0.2 mi ESE 4.6 mph - N/A Fog Fog
7:25 AM 33.8 °F 30.8 °F 32.0 °F 93% 30.04 in 0.1 mi ESE 3.5 mph - N/A Fog Fog
7:54 AM 33.1 °F 30.0 °F 33.1 °F 100% 30.06 in 0.1 mi SE 3.5 mph - N/A Fog Fog
8:11 AM 33.8 °F - 33.8 °F 100% 30.05 in 0.2 mi Calm Calm - N/A Fog Fog
8:54 AM 35.1 °F 32.2 °F 35.1 °F 100% 30.05 in 0.2 mi ESE 3.5 mph - N/A Fog Fog
9:54 AM 37.0 °F 32.4 °F 36.0 °F 96% 30.03 in 1.0 mi ESE 5.8 mph - N/A   Overcast
10:28 AM 37.4 °F 32.8 °F 37.4 °F 100% 30.00 in 1.0 mi ESE 5.8 mph - N/A   Overcast
10:54 AM 37.9 °F 35.5 °F 37.0 °F 97% 30.02 in 1.0 mi ESE 3.5 mph - N/A   Overcast
11:02 AM 37.4 °F 33.8 °F 37.4 °F 100% 29.99 in 2.0 mi East 4.6 mph - N/A   Overcast
11:54 AM 39.9 °F 36.7 °F 39.0 °F 97% 29.96 in 5.0 mi East 4.6 mph - 0.01 in Rain Light Rain
12:30 PM 39.2 °F 37.0 °F 39.2 °F 100% 29.96 in 1.8 mi NNE 3.5 mph - 0.02 in Rain Rain
12:54 PM 39.9 °F 35.1 °F 39.0 °F 97% 29.94 in 1.8 mi SSE 6.9 mph - 0.11 in Rain Rain
1:12 PM 41.0 °F 36.4 °F 39.2 °F 93% 29.86 in 3.0 mi SE 6.9 mph - 0.05 in Rain Light Rain
1:39 PM 42.8 °F 41.1 °F 41.0 °F 93% 29.89 in 3.0 mi West 3.5 mph - 0.06 in Rain Light Rain
1:54 PM 43.0 °F 41.3 °F 42.1 °F 97% 29.89 in 6.0 mi South 3.5 mph - 0.06 in   Overcast
2:54 PM 45.0 °F 43.5 °F 43.0 °F 93% 29.86 in 6.0 mi ESE 3.5 mph - 0.01 in   Overcast
3:37 PM 44.6 °F 42.2 °F 42.8 °F 93% 29.86 in 2.0 mi SSW 4.6 mph - 0.00 in Rain Light Rain
3:54 PM 45.0 °F 43.5 °F 44.1 °F 97% 29.87 in 2.0 mi SSE 3.5 mph - 0.07 in Rain Light Rain
4:22 PM 46.4 °F 43.5 °F 44.6 °F 93% 29.85 in 3.0 mi SSW 5.8 mph - 0.08 in Rain Rain
4:54 PM 48.0 °F - 46.9 °F 96% 29.85 in 5.0 mi SSW 4.6 mph - 0.12 in Rain Rain
5:54 PM 51.1 °F - 48.0 °F 89% 29.85 in 10.0 mi SSW 13.8 mph 19.6 mph 0.00 in   Overcast
6:54 PM 52.0 °F - 51.1 °F 97% 29.83 in 10.0 mi SSW 13.8 mph 21.9 mph N/A   Overcast
7:09 PM 53.6 °F - 51.8 °F 94% 29.82 in 10.0 mi SSW 12.7 mph 20.7 mph N/A   Overcast
7:54 PM 53.1 °F - 48.9 °F 86% 29.83 in 10.0 mi SSW 11.5 mph - N/A   Overcast
8:31 PM 53.6 °F - 50.0 °F 88% 29.81 in 10.0 mi SSW 10.4 mph - 0.01 in Rain Light Rain
8:54 PM 53.1 °F - 50.0 °F 89% 29.82 in 10.0 mi SSW 11.5 mph - 0.03 in Rain Light Rain
9:54 PM 53.1 °F - 50.0 °F 89% 29.81 in 10.0 mi SSW 11.5 mph - 0.00 in Rain Light Rain
10:54 PM 54.0 °F - 52.0 °F 93% 29.79 in 8.0 mi SSW 11.5 mph - 0.04 in Rain Light Rain
11:54 PM 53.1 °F - 52.0 °F 96% 29.76 in 8.0 mi SSW 5.8 mph - 0.02 in Rain Light Rain